EW1425 Fairhaven MA US current weather conditions

sailwx.info

Wind from 238

Air temperature 23.3° C
Dewpoint 19.9° C

Last reported at 2020-Jul-04 21:00 UTC.
Time now 2020-Jul-04 21:34 UTC

Location: N 41°38' W 070°54'.
View on Google Maps.

See reports from other nearby stations

  
Tides and Currents Weather Stations Pressure Air Temp Water Temp Dewpoint Dewpoint Depression Visibility Wind Speed Wind Dir Waves Ship Positions
date/time (UTC)wind fromknots sea level pressurealtimeterstation pressurevisibilityair tempwater tempwave heightnotes
2020-Jul-04 21:00 238 23.3
2020-Jul-04 20:45 105 23.3
2020-Jul-04 20:32 231 22.8
2020-Jul-04 20:18 053 23.3
2020-Jul-04 20:01 053 23.3
2020-Jul-04 19:46 238 23.3
2020-Jul-04 19:31 227 23.3
2020-Jul-04 19:16 235 0 gusting 3 23.3
2020-Jul-04 19:00 242 23.3
2020-Jul-04 18:45 257 23.3
2020-Jul-04 18:30 193 23.3
2020-Jul-04 18:15 055 22.8
2020-Jul-04 18:00 252 22.8
2020-Jul-04 17:45 009 22.8
2020-Jul-04 17:30 046 22.2
2020-Jul-04 17:17 025 0 gusting 3 21.7
2020-Jul-04 17:03 028 0 gusting 3 22.2
2020-Jul-04 16:45 058 0 gusting 5 21.7
2020-Jul-04 16:31 343 0 gusting 3 21.1
2020-Jul-04 16:16 058 0 gusting 3 21.1
2020-Jul-04 16:01 351 21.1
2020-Jul-04 15:47 053 21.1
2020-Jul-04 15:30 329 21.1
2020-Jul-04 15:15 326 2 gusting 6 21.1
2020-Jul-04 15:00 353 0 gusting 6 21.1
2020-Jul-04 14:45 061 0 gusting 4 21.1
2020-Jul-04 14:30 018 1 gusting 6 21.1
2020-Jul-04 14:15 360 0 gusting 4 21.1
2020-Jul-04 14:02 001 1 gusting 4 20.0
2020-Jul-04 13:47 333 1 gusting 5 19.4
2020-Jul-04 13:31 344 1 gusting 3 18.9
2020-Jul-04 13:16 060 1 gusting 5 18.9
2020-Jul-04 13:01 038 1 gusting 5 18.9
2020-Jul-04 12:45 359 1 gusting 5 18.9
2020-Jul-04 12:31 050 1 gusting 6 18.3
2020-Jul-04 12:15 070 1 gusting 6 18.3
2020-Jul-04 12:01 044 17.8
2020-Jul-04 11:46
2020-Jul-04 11:30
2020-Jul-04 11:15
2020-Jul-04 11:02
2020-Jul-04 10:45
2020-Jul-04 10:32
2020-Jul-04 10:16
2020-Jul-04 10:02
2020-Jul-04 09:46
2020-Jul-04 09:31
2020-Jul-04 09:17
2020-Jul-04 09:01 063 -67.8
2020-Jul-04 08:45 027 17.8
2020-Jul-04 08:30 344 17.2
2020-Jul-04 08:15 346 17.8
2020-Jul-04 08:00 001 0 gusting 2 17.8
2020-Jul-04 07:45 077 0 gusting 3 17.8
2020-Jul-04 07:31 034 17.8
2020-Jul-04 07:16 030 1 gusting 3 17.8
2020-Jul-04 07:00 023 0 gusting 4 17.8
2020-Jul-04 06:45 046 0 gusting 5 17.8
2020-Jul-04 06:31 050 0 gusting 4 17.8
2020-Jul-04 06:15 058 1 gusting 4 17.8
2020-Jul-04 06:00 006 0 gusting 3 17.8
2020-Jul-04 05:45 013 0 gusting 2 17.8
2020-Jul-04 05:30 340 0 gusting 4 17.8
2020-Jul-04 05:16 357 17.8
2020-Jul-04 05:00 340 17.8
2020-Jul-04 04:45 057 0 gusting 3 17.8
2020-Jul-04 04:30 034 0 gusting 4 17.8
2020-Jul-04 04:15 055 1 gusting 4 17.8
2020-Jul-04 04:00 359 0 gusting 3 17.8
2020-Jul-04 03:45 032 0 gusting 4 17.8
2020-Jul-04 03:30 339 17.8
2020-Jul-04 03:16 001 0 gusting 4 17.8
2020-Jul-04 03:00 072 0 gusting 2 17.8
2020-Jul-04 02:45 353 17.8
2020-Jul-04 02:30 054 17.8
2020-Jul-04 02:15 017 0 gusting 2 17.8
2020-Jul-04 02:00 013 0 gusting 4 18.3
2020-Jul-04 01:45 072 0 gusting 5 18.3
2020-Jul-04 01:32 356 0 gusting 10 18.3
2020-Jul-04 01:16 014 0 gusting 5 18.3
2020-Jul-04 01:02 352 18.3
2020-Jul-04 00:46 082 0 gusting 4 18.3
2020-Jul-04 00:32 013 0 gusting 3 18.3
2020-Jul-04 00:16 023 1 gusting 5 18.3
2020-Jul-04 00:01 028 0 gusting 5 18.3
2020-Jul-03 23:48 347 1 gusting 5 18.3
2020-Jul-03 23:32 076 0 gusting 5 18.9
2020-Jul-03 23:16 093 0 gusting 6 18.9
2020-Jul-03 23:01 024 1 gusting 4 18.9
2020-Jul-03 22:46 078 1 gusting 4 18.9
2020-Jul-03 22:30 053 1 gusting 5 19.4
2020-Jul-03 22:16 004 1 gusting 5 19.4
2020-Jul-03 21:46 007 0 gusting 4 19.4
2020-Jul-03 21:30 351 20.0
2020-Jul-03 21:15 037 20.0
2020-Jul-03 21:01 033 0 gusting 3 20.0
2020-Jul-03 20:45 069 1 gusting 5 20.0
2020-Jul-03 20:31 332 0 gusting 5 20.6
2020-Jul-03 20:15 338 1 gusting 6 20.0
2020-Jul-03 20:00 091 0 gusting 5 20.0
2020-Jul-03 19:45 063 2 gusting 7 20.0
2020-Jul-03 19:30 311 1 gusting 6 20.6
2020-Jul-03 19:15 007 0 gusting 7 21.1
2020-Jul-03 19:00 061 0 gusting 4 21.7
2020-Jul-03 18:45 113 0 gusting 7 22.2
2020-Jul-03 18:30 008 1 gusting 6 22.2
2020-Jul-03 18:15 023 1 gusting 5 23.3
2020-Jul-03 18:00 345 1 gusting 6 23.3
2020-Jul-03 17:45 049 2 gusting 7 23.3
2020-Jul-03 17:30 004 1 gusting 6 23.9
2020-Jul-03 17:15 075 1 gusting 5 24.4
2020-Jul-03 17:00 047 2 gusting 6 25.0
2020-Jul-03 16:45 088 0 gusting 6 25.0
2020-Jul-03 16:30 004 1 gusting 8 25.0
2020-Jul-03 16:15 079 2 gusting 7 25.0
2020-Jul-03 16:00 023 1 gusting 10 25.0
2020-Jul-03 15:45 084 2 gusting 8 24.4
2020-Jul-03 15:31 130 2 gusting 8 23.3
2020-Jul-03 15:16 030 1 gusting 5 22.8
2020-Jul-03 15:01 004 2 gusting 9 22.8
2020-Jul-03 14:47 033 1 gusting 6 22.8
2020-Jul-03 14:31 053 1 gusting 6 22.8
2020-Jul-03 14:16 326 1 gusting 5 22.8
2020-Jul-03 14:01 022 1 gusting 8 23.3
2020-Jul-03 13:46 034 1 gusting 5 23.9
2020-Jul-03 13:31 070 1 gusting 6 25.0
2020-Jul-03 13:16 072 1 gusting 9 25.0
2020-Jul-03 13:01 011 1 gusting 4 24.4
2020-Jul-03 12:46 057 0 gusting 4 24.4
2020-Jul-03 12:31 017 0 gusting 3 23.9
2020-Jul-03 12:16 034 0 gusting 6 23.9
2020-Jul-03 12:01 053 0 gusting 3 24.4
2020-Jul-03 11:46 070 1 gusting 6 24.4
2020-Jul-03 11:31 005 24.4
2020-Jul-03 11:15 095 1 gusting 3 23.9
2020-Jul-03 11:00 044 23.9
2020-Jul-03 10:45
2020-Jul-03 10:30
2020-Jul-03 10:15
2020-Jul-03 10:00
2020-Jul-03 09:45
2020-Jul-03 09:31
2020-Jul-03 09:01 317 21.1
2020-Jul-03 08:47 259 21.1
2020-Jul-03 08:31 245 20.6
2020-Jul-03 08:17 245 20.6
2020-Jul-03 08:01 245 20.0
2020-Jul-03 07:46 245 20.0
2020-Jul-03 07:32 245 20.0
2020-Jul-03 07:16 245 20.6
2020-Jul-03 07:01 245 20.6
2020-Jul-03 06:46 245 20.6
2020-Jul-03 06:31 245 20.6
2020-Jul-03 06:16 245 20.6
2020-Jul-03 06:01 245 21.1
2020-Jul-03 05:46 245 21.1
2020-Jul-03 05:31 245 21.1
2020-Jul-03 05:15 245 21.1
2020-Jul-03 05:00 245 21.1
2020-Jul-03 04:45 245 21.1
2020-Jul-03 04:30 241 21.7
2020-Jul-03 04:16 250 21.7
2020-Jul-03 04:00 250 21.7
2020-Jul-03 03:45 240 21.7
2020-Jul-03 03:30 240 21.7
2020-Jul-03 03:15 231 22.2
2020-Jul-03 03:00 241 22.2
2020-Jul-03 02:45 322 22.2
2020-Jul-03 02:31 276 22.2
2020-Jul-03 02:15 243 22.2
2020-Jul-03 02:01 265 22.2
2020-Jul-03 01:45 246 22.2
2020-Jul-03 01:30 252 22.2
2020-Jul-03 01:15 248 22.8
2020-Jul-03 01:00 262 22.8
2020-Jul-03 00:45 248 22.8
2020-Jul-03 00:30 255 23.3
2020-Jul-03 00:15 262 23.3
2020-Jul-03 00:00 243 23.9
2020-Jul-02 23:45 250 23.9
2020-Jul-02 23:30 252 24.4
2020-Jul-02 23:15 248 24.4
2020-Jul-02 23:00 247 0 gusting 5 25.0
2020-Jul-02 22:47 246 25.0
2020-Jul-02 22:32 256 25.0
2020-Jul-02 22:16 229 0 gusting 3 25.6
2020-Jul-02 22:01 226 0 gusting 4 25.6
2020-Jul-02 21:46 241 0 gusting 3 26.1
2020-Jul-02 21:31 256 26.1
2020-Jul-02 21:17 234 26.7
2020-Jul-02 21:01 230 26.7